Showing default

PAKSAT MM1R, 59915

Orbit data source: Space-Track

PAKSAT MM1R, 59915 is a payload satellite owned by SUPARCO (PK) in GEO that was launched on Thu, 30 May 2024 UTC via a CHANG ZHENG 3B launch vehicle from the Xichang Space Center, China (XSC). Payload-class satellites include a variety of spacecraft equipped with specific instruments for various scientific and technological missions. These include communications satellites like Starlink; space stations such as the ISS; scientific satellites like the Hubble; Earth observation satellites from companies like Planet Labs, Umbra, and HawkEye 360; GPS; miniature CubeSats for education and research; and military/defense satellites.

Not visible in the next 10 days
Identifier
59915, 2024-104A
Orbit
GEO
Country
Flag of PKPK / PAKI
Related business
Manufacturer
CAST
Mission
Operational Civil Communications
Bus & Motor
DFH-4, FY
Mass
~5,400 kg wet, ~2,500 kg dry
Launch date (UTC)
2024-05-30 (2 years ago)
Launch vehicle
CHANG ZHENG 3B
Launch site
Xichang Space Center, China (XSC)
Object type
Payload
Rocket body
Debris
Shape & HBR
Box + 2 Pan, 7.8 m
Radar Cross Section
19.960 m², Large (>1 m²)

Expand to show TLE details & history
Last TLE update: 2 days ago

TLE from 2 days ago
0 PAKSAT MM1R
1 59915U 24104A   26170.96614214  .00000148  00000-0  00000-0 0  9992
2 59915   0.0325  88.0434 0002460 347.0422 219.0963  1.00266668  7554
Epoch: 2026-06-19T23:11Z
TLE epoch observation values (Epoch: 2026-06-19T23:11:14.680Z)
Latitude
-0.02802°
Longitude
38.17803°
Altitude
35,795.616 km
Speed
3.074 km/s
True Right ascension
19h 36m 42s
True Declination
0° 01' 41"
Sunlit
Object was in daylight at epoch
Visualization orbit readout
Latitude
Unknown
Longitude
Unknown
Altitude
Unknown
Speed
Unknown
Apparent Right ascension
Unknown
Apparent Declination
Unknown
Sunlit
N/A
Visualization observer readout
Local Sidereal Time
21:31:10
Azimuth
Unknown
Elevation
Unknown
Doppler factor
Unknown
Orbital elements
Apogee altitude
35,799.473 km
Perigee altitude
35,778.727 km
Semi-major axis
42,167.237 km
Eccentricity
0.00025
Inclination
0.0325°
RAAN
88.0434°
Arg. of periapsis
347.0422°
True anomaly
219.07853°
Mean anomaly
219.0963°
Eccentric anomaly
219.08741°
Mean motion
0.25066 °/min
Orbital period
1,436.22 mins
BSTAR
0
Loading maneuver chart data...
Computing Atmospheric mass density...
Loading historical data...
Loading historical data...
Loading historical data...
Loading historical data...
Loading historical data...
Loading historical data...
Loading historical data...
Other satellites on launch #104 in the year 2024 (2024-05-30 UTC)

Documentation

Showing up to 5 results
|